Weather History for Sault Ste Marie, MI

Change the Weather History Date:

Sunday, March 31, 2013

  Actual Average Record
Temperature  
Mean Temperature 30 °F 33 °F  
Max Temperature 37 °F 41 °F 63 °F (1999)
Min Temperature 22 °F 24 °F -6 °F (1923)
Degree Days  
Heating Degree Days 35 32  
Month to date heating degree days 1214 1200  
Since 1 July heating degree days 6946 7326  
Cooling Degree Days 0 0  
Month to date cooling degree days 0 0  
Year to date cooling degree days 0 0  
Moisture  
Dew Point 28 °F    
Average Humidity 82    
Maximum Humidity 100    
Minimum Humidity 63    
Precipitation  
Precipitation 0.08 in 0.07 in 1.08 in (1891)
Month to date precipitation 2.60 1.95  
Year to date precipitation 8.69 5.48  
Snow  
Snow 0.40 in 0.30 in 6.00 in (1891)
Month to date snowfall 18.8 13.4  
Since 1 July snowfall 139.6 113.6  
Snow Depth 19.00 in    
Sea Level Pressure  
Sea Level Pressure 29.58 in    
Wind  
Wind Speed 8 mph (West)    
Max Wind Speed 28 mph    
Max Gust Speed 39 mph    
Visibility 4 miles    
Events Fog , Rain , Snow    
T = Trace of Precipitation, MM = Missing Value Source: NWS Daily Summary

Daily Weather History Graph

Daily Weather History Graph

Search for Another Location

Airport:

Trip Planner

Search our weather history database for the weather conditions in past years. The results will help you decide how hot, cold, wet, or windy it might be!

Date:

Astronomy

Mar. 31, 2013 Rise Set
Actual Time 7:18 AM EDT 8:05 PM EDT
Civil Twilight 6:47 AM EDT 8:35 PM EDT
Nautical Twilight 6:11 AM EDT 9:12 PM EDT
Astronomical Twilight 5:33 AM EDT 9:50 PM EDT
Moon 12:24 AM EDT (3/31) 9:50 AM EDT (3/31)
Length of Visible Light 13h 47m
Length of Day
12h 46m
Waning Gibbous, 78% of the Moon is Illuminated
Mar 31
Waning Gibbous
Apr 3
Last Quarter
Apr 10
New
Apr 18
First Quarter
Apr 25
Full

Hourly Weather History & Observations

Time (EDT) Temp. Windchill Dew Point Humidity Pressure Visibility Wind Dir Wind Speed Gust Speed Precip Events Conditions
12:43 AM 34.0 °F 29.8 °F 32.0 °F 92% 29.74 in 2.5 mi SSE 4.6 mph - 0.00 in Rain Light Rain
12:55 AM 34.0 °F 28.8 °F 32.0 °F 92% 29.75 in 1.8 mi SSE 5.8 mph - 0.01 in Rain Light Rain
1:20 AM 35.1 °F 32.2 °F 33.1 °F 92% 29.72 in 1.2 mi SE 3.5 mph - 0.01 in Rain Light Rain
1:47 AM 34.0 °F - 33.1 °F 96% 29.72 in 0.8 mi Calm Calm - 0.02 in Rain Light Rain
1:55 AM 34.0 °F - 33.1 °F 96% 29.73 in 0.5 mi Calm Calm - 0.02 in Fog , Rain Light Rain
2:55 AM 34.0 °F - 32.0 °F 92% 29.69 in 0.2 mi Calm Calm - 0.01 in Fog Fog
3:55 AM 34.0 °F - 32.0 °F 92% 29.67 in 0.2 mi Calm Calm - 0.00 in Fog Fog
4:55 AM 34.0 °F - 33.1 °F 96% 29.64 in 0.2 mi Calm Calm - N/A Fog Fog
5:55 AM 34.0 °F - 33.1 °F 96% 29.63 in 0.2 mi Calm Calm - N/A Fog Fog
6:55 AM 34.0 °F - 32.0 °F 92% 29.61 in 0.2 mi Calm Calm - N/A Fog Fog
7:55 AM 34.0 °F - 33.1 °F 96% 29.61 in 0.2 mi Calm Calm - N/A Fog Fog
8:55 AM 35.1 °F - 33.1 °F 92% 29.60 in 0.2 mi Calm Calm - N/A Fog Fog
9:55 AM 36.0 °F 33.3 °F 34.0 °F 93% 29.58 in 0.2 mi South 3.5 mph - N/A Fog Fog
10:55 AM 36.0 °F 30.3 °F 34.0 °F 93% 29.56 in 0.2 mi SSW 6.9 mph - N/A Fog Fog
11:19 AM 35.1 °F 27.9 °F 33.1 °F 92% 29.54 in 2.5 mi SSW 9.2 mph - N/A   Overcast
11:26 AM 35.1 °F 27.4 °F 33.1 °F 92% 29.54 in 6.0 mi SSW 10.4 mph - N/A   Overcast
11:35 AM 35.1 °F 29.3 °F 32.0 °F 89% 29.54 in 6.0 mi SSW 6.9 mph - N/A   Overcast
11:55 AM 36.0 °F 29.6 °F 33.1 °F 89% 29.55 in 6.0 mi SW 8.1 mph - N/A   Overcast
12:55 PM 35.1 °F 26.9 °F 32.0 °F 89% 29.55 in 6.0 mi SSW 11.5 mph - 0.00 in   Overcast
1:16 PM 34.0 °F 26.6 °F 30.9 °F 89% 29.52 in 5.0 mi SSW 9.2 mph - 0.00 in   Overcast
1:47 PM 36.0 °F 30.3 °F 32.0 °F 86% 29.52 in 9.0 mi WSW 6.9 mph - 0.00 in   Overcast
1:55 PM 36.0 °F 28.0 °F 32.0 °F 86% 29.54 in 10.0 mi WSW 11.5 mph - 0.00 in   Overcast
2:55 PM 37.0 °F 31.0 °F 32.0 °F 82% 29.54 in 6.0 mi West 8.1 mph - 0.00 in Rain Light Rain
3:12 PM 37.0 °F 32.4 °F 32.0 °F 82% 29.52 in 8.0 mi West 5.8 mph - 0.00 in Rain Light Rain
3:39 PM 36.0 °F 29.0 °F 32.0 °F 86% 29.52 in 7.0 mi WNW 9.2 mph - 0.00 in Rain Light Rain
3:44 PM 36.0 °F 30.3 °F 32.0 °F 86% 29.52 in 8.0 mi WNW 6.9 mph - 0.00 in Rain Light Rain
3:55 PM 36.0 °F 30.3 °F 32.0 °F 86% 29.54 in 8.0 mi NW 6.9 mph - 0.00 in Rain Light Rain
4:18 PM 34.0 °F 27.2 °F 30.0 °F 85% 29.52 in 1.8 mi NW 8.1 mph - 0.01 in Snow Light Snow
4:28 PM 34.0 °F 26.6 °F 30.0 °F 85% 29.53 in 1.0 mi WNW 9.2 mph - 0.01 in Snow Light Snow
4:38 PM 33.1 °F 26.9 °F 30.9 °F 92% 29.53 in 0.8 mi WNW 6.9 mph - 0.02 in Snow Light Snow
4:45 PM 33.1 °F 26.1 °F 30.0 °F 89% 29.53 in 0.8 mi WNW 8.1 mph - 0.02 in Snow Light Snow
4:55 PM 33.1 °F 26.1 °F 30.9 °F 92% 29.55 in 0.5 mi WNW 8.1 mph - 0.03 in Fog , Snow Snow
5:08 PM 33.1 °F 26.9 °F 30.9 °F 92% 29.52 in 1.0 mi WNW 6.9 mph - 0.01 in Snow Light Snow
5:19 PM 33.1 °F 27.7 °F 30.0 °F 89% 29.52 in 1.2 mi WNW 5.8 mph - 0.01 in Snow Light Snow
5:25 PM 34.0 °F 28.8 °F 30.0 °F 85% 29.52 in 3.0 mi WNW 5.8 mph - 0.01 in Snow Light Snow
5:46 PM 34.0 °F 26.6 °F 27.0 °F 75% 29.53 in 9.0 mi WNW 9.2 mph - 0.01 in   Overcast
5:55 PM 35.1 °F 26.4 °F 26.1 °F 70% 29.55 in 10.0 mi WNW 12.7 mph 21.9 mph 0.01 in   Overcast
6:08 PM 34.0 °F 23.8 °F 26.1 °F 73% 29.53 in 2.5 mi WNW 16.1 mph 29.9 mph 0.00 in Snow Light Snow
6:20 PM 34.0 °F 25.0 °F 25.0 °F 70% 29.53 in 8.0 mi WNW 12.7 mph 26.5 mph 0.00 in Snow Light Snow
6:33 PM 35.1 °F 26.4 °F 23.0 °F 61% 29.53 in 10.0 mi WNW 12.7 mph 23.0 mph 0.00 in   Overcast
6:55 PM 34.0 °F 23.4 °F 24.1 °F 67% 29.55 in 10.0 mi WNW 17.3 mph 28.8 mph 0.00 in   Overcast
7:55 PM 30.9 °F 19.1 °F 21.9 °F 69% 29.57 in 10.0 mi WNW 18.4 mph 35.7 mph N/A   Overcast
8:11 PM 30.0 °F 16.9 °F 21.0 °F 69% 29.57 in 10.0 mi West 21.9 mph 33.4 mph N/A   Overcast
8:55 PM 28.9 °F 16.9 °F 17.1 °F 61% 29.60 in 10.0 mi West 17.3 mph 31.1 mph N/A   Overcast
9:11 PM 28.0 °F 16.5 °F 18.0 °F 66% 29.59 in 10.0 mi West 15.0 mph 29.9 mph N/A   Overcast
9:20 PM 28.0 °F 14.3 °F 18.0 °F 66% 29.59 in 10.0 mi WNW 21.9 mph 29.9 mph N/A   Overcast
9:37 PM 27.0 °F 12.8 °F 17.1 °F 66% 29.60 in 10.0 mi WNW 21.9 mph 33.4 mph N/A   Overcast
9:55 PM 27.0 °F 13.5 °F 17.1 °F 66% 29.61 in 10.0 mi WNW 19.6 mph 35.7 mph N/A   Overcast
10:55 PM 25.0 °F 10.6 °F 16.0 °F 69% 29.62 in 9.0 mi West 20.7 mph 31.1 mph 0.00 in Snow Light Snow
11:32 PM 24.1 °F 9.0 °F 17.1 °F 75% 29.60 in 1.2 mi WNW 21.9 mph 33.4 mph 0.00 in Snow Light Snow
11:37 PM 23.0 °F 8.0 °F 19.0 °F 85% 29.60 in 0.5 mi WNW 20.7 mph 33.4 mph 0.00 in Fog , Snow Snow
11:47 PM 23.0 °F 9.2 °F 19.0 °F 85% 29.61 in 0.2 mi WNW 17.3 mph 31.1 mph 0.01 in Fog , Snow Heavy Snow
11:55 PM 23.0 °F 9.6 °F 17.1 °F 78% 29.63 in 1.0 mi NW 16.1 mph 27.6 mph 0.01 in Snow Light Snow
11:59 PM 24.1 °F 10.6 °F 17.1 °F 75% 29.61 in 3.0 mi NW 17.3 mph 26.5 mph 0.00 in Snow Light Snow